Terminal Aerodrome Forecast
Issued by NWS Louisville, KY

Home | Current Version | Previous Version | Text Only | Print | Product List | Glossary On
Versions: 1 2 3 4 5 6 7 8 9 10 11 12 13 14 15 16 17 18 19 20 21 22 23 24 25
000
FTUS43 KLMK 171500 AAA
TAFSDF
TAF AMD
KSDF 171516Z 1715/1818 28008KT P6SM OVC019
      TEMPO 1717/1721 BKN022
     FM172100 29005KT P6SM BKN022
     FM180600 35003KT P6SM SCT020 BKN100=

USA.gov is the U.S. government's official web portal to all federal, state and local government web resources and services.